When you browse on this site, cookies collect data to enhance your experience and personalize the content and advertising you see.
Visit our Privacy Policy to learn more. By continuing to use the site, you agree to this use of cookies and data.
  • In Germany
  • List of Countries
  • For 7 days
  • Water Temperature
  • Weather Map
  • Weather Widgets
  • user-avatar
    Login

    Hourly Weather Miase

    Today, 16 September, Monday

    Time Temperature Precipitation Wind Pressure Humidity
    00:00 +17°C° 0 mm 5 mps 750 mmHg 53%
    01:00 +16°C° 0 mm 5 mps 750 mmHg 52%
    02:00 +16°C° 0 mm 5 mps 750 mmHg 57%
    03:00 +15°C° 0 mm 5 mps 750 mmHg 61%
    04:00 +15°C° 0 mm 5 mps 750 mmHg 66%
    05:00 +14°C° 0 mm 6 mps 750 mmHg 66%
    06:00 +14°C° 0 mm 6 mps 750 mmHg 67%
    07:00 +13°C° 0 mm 6 mps 751 mmHg 67%
    08:00 +12°C° 0 mm 7 mps 751 mmHg 64%
    09:00 +14°C° 0 mm 7 mps 751 mmHg 62%
    10:00 +14°C° 0 mm 7 mps 751 mmHg 59%
    11:00 +14°C° 0 mm 7 mps 751 mmHg 58%
    12:00 +14°C° 0 mm 7 mps 751 mmHg 57%
    13:00 +15°C° 0 mm 6 mps 751 mmHg 56%
    14:00 +15°C° 0 mm 6 mps 751 mmHg 55%
    15:00 +15°C° 0 mm 6 mps 750 mmHg 54%
    16:00 +15°C° 0 mm 6 mps 750 mmHg 54%
    17:00 +14°C° 0 mm 5 mps 750 mmHg 56%
    18:00 +13°C° 0 mm 4 mps 750 mmHg 58%
    19:00 +13°C° 0 mm 4 mps 750 mmHg 61%
    20:00 +12°C° 0 mm 4 mps 749 mmHg 64%
    21:00 +11°C° 0 mm 3 mps 749 mmHg 67%
    22:00 +10°C° 0 mm 3 mps 749 mmHg 70%
    23:00 +10°C° 0 mm 4 mps 749 mmHg 70%

    Tomorrow, 17 September, Tuesday

    Time Temperature Precipitation Wind Pressure Humidity
    00:00 +10°C° 0 mm 4 mps 749 mmHg 69%
    01:00 +10°C° 0 mm 4 mps 749 mmHg 69%
    02:00 +10°C° 0 mm 4 mps 749 mmHg 70%
    03:00 +9°C° 0 mm 5 mps 749 mmHg 71%
    04:00 +9°C° 0 mm 5 mps 748 mmHg 72%
    05:00 +9°C° 0 mm 5 mps 748 mmHg 72%
    06:00 +9°C° 0 mm 6 mps 748 mmHg 72%
    07:00 +10°C° 0 mm 6 mps 748 mmHg 73%
    08:00 +11°C° 0.1 mm 6 mps 748 mmHg 67%
    09:00 +12°C° 0.1 mm 7 mps 748 mmHg 61%
    10:00 +14°C° 0.1 mm 7 mps 747 mmHg 55%
    11:00 +13°C° 0.3 mm 8 mps 747 mmHg 55%
    12:00 +13°C° 0.3 mm 8 mps 746 mmHg 56%
    13:00 +13°C° 0.3 mm 8 mps 746 mmHg 56%
    14:00 +13°C° 0.5 mm 8 mps 745 mmHg 60%
    15:00 +12°C° 0.5 mm 9 mps 745 mmHg 65%
    16:00 +11°C° 0.5 mm 9 mps 745 mmHg 69%
    17:00 +10°C° 0.5 mm 7 mps 745 mmHg 72%
    18:00 +9°C° 0.5 mm 6 mps 745 mmHg 74%
    19:00 +8°C° 0.5 mm 5 mps 745 mmHg 77%
    20:00 +8°C° 0 mm 6 mps 745 mmHg 78%
    21:00 +7°C° 0 mm 6 mps 745 mmHg 78%
    22:00 +7°C° 0 mm 6 mps 744 mmHg 79%
    23:00 +5°C° 0 mm 7 mps 745 mmHg 79%

    Day after tomorrow, 18 September, Wednesday

    Time Temperature Precipitation Wind Pressure Humidity
    00:00 +5°C° 0 mm 7 mps 745 mmHg 79%
    01:00 +5°C° 0 mm 7 mps 745 mmHg 78%
    02:00 +5°C° 0 mm 8 mps 745 mmHg 80%
    03:00 +5°C° 0 mm 8 mps 746 mmHg 81%
    04:00 +6°C° 0 mm 9 mps 746 mmHg 82%
    05:00 +6°C° 0.1 mm 9 mps 747 mmHg 81%
    06:00 +6°C° 0.1 mm 9 mps 747 mmHg 79%
    07:00 +6°C° 0.1 mm 9 mps 748 mmHg 77%
    08:00 +8°C° 0.1 mm 9 mps 749 mmHg 70%
    09:00 +10°C° 0.1 mm 9 mps 749 mmHg 63%
    10:00 +12°C° 0.1 mm 9 mps 750 mmHg 56%
    11:00 +12°C° 0 mm 9 mps 750 mmHg 54%
    12:00 +12°C° 0 mm 9 mps 750 mmHg 52%
    13:00 +13°C° 0 mm 9 mps 750 mmHg 49%
    14:00 +13°C° 0.3 mm 8 mps 750 mmHg 53%
    15:00 +12°C° 0.3 mm 7 mps 751 mmHg 56%
    16:00 +12°C° 0.3 mm 7 mps 751 mmHg 59%
    17:00 +11°C° 0.1 mm 6 mps 751 mmHg 65%
    18:00 +10°C° 0.1 mm 5 mps 752 mmHg 70%
    19:00 +8°C° 0.1 mm 4 mps 752 mmHg 75%
    20:00 +8°C° 0 mm 4 mps 752 mmHg 77%
    21:00 +9°C° 0 mm 3 mps 753 mmHg 79%
    22:00 +8°C° 0 mm 3 mps 753 mmHg 80%
    23:00 +8°C° 0 mm 3 mps 753 mmHg 82%

    19 September, Thursday

    Time Temperature Precipitation Wind Pressure Humidity
    00:00 +8°C° 0 mm 3 mps 753 mmHg 83%
    01:00 +7°C° 0 mm 3 mps 753 mmHg 84%
    02:00 +6°C° 0 mm 4 mps 753 mmHg 87%
    03:00 +5°C° 0 mm 4 mps 753 mmHg 90%
    04:00 +5°C° 0 mm 4 mps 753 mmHg 92%
    05:00 +5°C° 0 mm 4 mps 753 mmHg 90%
    06:00 +6°C° 0 mm 4 mps 754 mmHg 88%
    07:00 +6°C° 0 mm 4 mps 754 mmHg 86%
    08:00 +8°C° 0 mm 4 mps 754 mmHg 79%
    09:00 +11°C° 0 mm 4 mps 755 mmHg 71%
    10:00 +12°C° 0 mm 4 mps 755 mmHg 63%
    11:00 +13°C° 0.4 mm 4 mps 755 mmHg 61%
    12:00 +13°C° 0.4 mm 5 mps 755 mmHg 59%
    13:00 +14°C° 0.4 mm 5 mps 755 mmHg 56%
    14:00 +13°C° 0.5 mm 5 mps 755 mmHg 59%
    15:00 +13°C° 0.5 mm 5 mps 755 mmHg 62%
    16:00 +12°C° 0.5 mm 5 mps 755 mmHg 64%
    17:00 +10°C° 0.1 mm 5 mps 756 mmHg 69%
    18:00 +10°C° 0.1 mm 4 mps 756 mmHg 73%
    19:00 +7°C° 0.1 mm 4 mps 757 mmHg 77%
    20:00 +7°C° 0 mm 4 mps 757 mmHg 80%
    21:00 +6°C° 0 mm 4 mps 758 mmHg 82%
    22:00 +5°C° 0 mm 4 mps 758 mmHg 84%
    23:00 +5°C° 0 mm 3 mps 759 mmHg 85%

    20 September, Friday

    Time Temperature Precipitation Wind Pressure Humidity
    00:00 +4°C° 0 mm 3 mps 759 mmHg 86%
    01:00 +4°C° 0 mm 3 mps 759 mmHg 87%
    02:00 +4°C° 0 mm 3 mps 759 mmHg 86%
    03:00 +4°C° 0 mm 4 mps 759 mmHg 84%
    04:00 +4°C° 0 mm 4 mps 759 mmHg 83%
    05:00 +4°C° 0 mm 4 mps 759 mmHg 80%
    06:00 +5°C° 0 mm 4 mps 759 mmHg 77%
    07:00 +6°C° 0 mm 4 mps 759 mmHg 74%
    08:00 +8°C° 0 mm 4 mps 760 mmHg 68%
    09:00 +9°C° 0 mm 5 mps 760 mmHg 61%
    10:00 +12°C° 0 mm 5 mps 760 mmHg 55%
    11:00 +12°C° 0.1 mm 5 mps 760 mmHg 52%
    12:00 +13°C° 0.1 mm 5 mps 760 mmHg 49%
    13:00 +14°C° 0.1 mm 5 mps 760 mmHg 46%
    14:00 +13°C° 0 mm 4 mps 760 mmHg 47%
    15:00 +13°C° 0 mm 4 mps 760 mmHg 48%
    16:00 +13°C° 0 mm 4 mps 760 mmHg 50%
    17:00 +11°C° 0 mm 3 mps 761 mmHg 56%
    18:00 +10°C° 0 mm 2 mps 761 mmHg 63%
    19:00 +8°C° 0 mm 2 mps 761 mmHg 70%
    20:00 +9°C° 0 mm 1 mps 761 mmHg 71%
    21:00 +8°C° 0 mm 1 mps 762 mmHg 73%
    22:00 +7°C° 0 mm 0 mps 762 mmHg 75%
    23:00 +7°C° 0 mm 1 mps 762 mmHg 75%

    21 September, Saturday

    Time Temperature Precipitation Wind Pressure Humidity
    00:00 +7°C° 0 mm 1 mps 762 mmHg 75%
    01:00 +7°C° 0 mm 1 mps 762 mmHg 75%
    02:00 +7°C° 0 mm 1 mps 762 mmHg 76%
    03:00 +7°C° 0 mm 1 mps 762 mmHg 77%
    04:00 +6°C° 0 mm 2 mps 762 mmHg 77%
    05:00 +7°C° 0 mm 2 mps 762 mmHg 74%
    06:00 +8°C° 0 mm 2 mps 762 mmHg 71%
    07:00 +8°C° 0 mm 2 mps 762 mmHg 68%
    08:00 +10°C° 0 mm 3 mps 762 mmHg 62%
    09:00 +12°C° 0 mm 3 mps 762 mmHg 56%
    10:00 +14°C° 0 mm 3 mps 763 mmHg 50%
    11:00 +15°C° 0 mm 4 mps 762 mmHg 48%
    12:00 +17°C° 0 mm 4 mps 762 mmHg 46%
    13:00 +18°C° 0 mm 4 mps 761 mmHg 43%
    14:00 +17°C° 0 mm 3 mps 761 mmHg 45%
    15:00 +17°C° 0 mm 3 mps 761 mmHg 47%
    16:00 +17°C° 0 mm 3 mps 761 mmHg 50%
    17:00 +16°C° 0 mm 2 mps 761 mmHg 53%
    18:00 +14°C° 0 mm 2 mps 761 mmHg 56%
    19:00 +12°C° 0 mm 2 mps 761 mmHg 60%
    20:00 +12°C° 0 mm 2 mps 761 mmHg 61%
    21:00 +12°C° 0 mm 2 mps 761 mmHg 62%
    22:00 +10°C° 0 mm 2 mps 761 mmHg 63%
    23:00 +10°C° 0 mm 2 mps 761 mmHg 64%
    Show more